GW0890 Weather Reports


Display with metric or nautical units.
time (UTC)temp
F
wind
direction
speed
MPH
gust
MPH
rain 1hr
in
rain 24hr
in
rain mn
in
humidity
%
barometer
mb
20260510034556 54 64 0.0 0.0 0.00 0.00 0.00 92 1010.7
20260510033055 54 63 0.0 0.0 0.00 0.00 0.00 91 1010.5
20260510031558 54 61 0.0 0.0 0.00 0.00 0.00 90 1010.5
20260510030050 55 53 0.0 0.0 0.00 0.00 0.00 90 1010.3
20260510024549 56 51 0.0 0.0 0.00 0.00 0.00 88 1010.2
20260510023047 57 47 0.0 0.0 0.00 0.00 0.00 86 1010.1
20260510021545 58 47 0.0 0.0 0.00 0.00 0.00 84 1009.7
20260510020041 60 44 0.0 0.0 0.00 0.00 0.00 80 1009.5
20260510014540 62 44 0.0 0.0 0.00 0.00 0.00 76 1009.2
20260510013039 64 44 0.0 0.0 0.00 0.00 0.00 73 1009.0
20260510011539 65 44 0.0 0.0 0.00 0.00 0.00 71 1008.8
20260510010036 66 44 0.0 2.0 0.00 0.00 0.00 70 1008.7
20260510004536 66 44 1.0 7.0 0.00 0.00 0.00 69 1008.4
20260510003035 67 34 4.0 8.0 0.00 0.00 0.00 68 1008.3
20260510001534 68 21 3.0 9.0 0.00 0.00 0.00 67 1008.0
20260510000030 68 71 5.0 8.0 0.00 0.00 0.00 65 1008.1
20260509234535 69 38 3.0 7.0 0.00 0.00 0.00 64 1008.0
20260509233030 70 40 5.0 13.0 0.00 0.00 0.00 63 1007.9
20260509231530 70 23 6.0 10.0 0.00 0.00 0.00 61 1007.9
20260509230100 71 38 6.0 11.0 0.00 0.00 0.00 61 1007.9
20260509224604 71 355 6.0 13.0 0.00 0.00 0.00 60 1007.8
20260509223106 71 65 5.0 10.0 0.00 0.00 0.00 60 1007.7
20260509221605 71 10 8.0 13.0 0.00 0.00 0.00 61 1007.7
20260509220055 71 17 8.0 12.0 0.00 0.00 0.00 59 1007.8
20260509214558 71 26 3.0 7.0 0.00 0.00 0.00 62 1007.8
20260509213051 72 322 7.0 14.0 0.00 0.00 0.00 60 1007.9
20260509211552 71 14 7.0 13.0 0.00 0.00 0.00 61 1008.0
20260509210053 70 32 4.0 13.0 0.00 0.00 0.00 63 1007.9
20260509204551 71 13 8.0 14.0 0.00 0.00 0.00 62 1008.1
20260509203046 71 43 7.0 15.0 0.00 0.00 0.00 61 1007.9
20260509201553 70 110 10.0 15.0 0.00 0.00 0.00 61 1008.0
20260509200054 71 76 2.0 8.0 0.00 0.00 0.00 60 1008.0
20260509194543 71 14 6.0 11.0 0.00 0.00 0.00 62 1008.0
20260509193039 70 51 6.0 16.0 0.00 0.00 0.00 64 1008.1
20260509191539 71 71 6.0 14.0 0.00 0.00 0.00 62 1008.2
20260509190038 70 360 9.0 12.0 0.00 0.00 0.00 62 1008.0
20260509184534 69 38 5.0 11.0 0.00 0.00 0.00 65 1008.2
20260509183101 69 63 6.0 12.0 0.00 0.00 0.00 68 1008.1
20260509181601 67 75 3.0 9.0 0.00 0.00 0.00 67 1008.2
20260509180025 66 82 3.0 8.0 0.00 0.00 0.00 71 1008.3
20260509174522 63 46 4.0 9.0 0.00 0.00 0.00 75 1008.6
20260509173019 62 97 1.0 7.0 0.00 0.00 0.00 80 1008.8
20260509171525 61 64 4.0 9.0 0.00 0.00 0.00 76 1008.9
20260509170026 62 47 8.0 12.0 0.00 0.00 0.00 71 1008.9
20260509164516 62 45 5.0 15.0 0.00 0.00 0.00 71 1009.0
20260509163045 63 53 8.0 13.0 0.00 0.00 0.00 69 1009.0
20260509161555 64 52 7.0 15.0 0.00 0.00 0.00 68 1008.9
20260509160016 64 22 10.0 15.0 0.00 0.00 0.00 68 1008.8
20260509154518 64 14 5.0 11.0 0.00 0.00 0.00 68 1008.8
20260509153007 63 30 4.0 8.0 0.00 0.00 0.00 71 1008.6
20260509151506 62 77 4.0 9.0 0.00 0.00 0.00 69 1008.6
20260509150012 62 337 1.0 4.0 0.00 0.00 0.00 71 1008.7
20260509144501 61 337 1.0 5.0 0.00 0.00 0.00 73 1008.6
20260509143101 60 20 0.0 0.0 0.00 0.00 0.00 71 1008.5
20260509141555 60 21 0.0 2.0 0.00 0.00 0.00 69 1008.7
20260509134623 59 21 0.0 1.0 0.00 0.00 0.00 73 1008.7
20260509133049 58 21 0.0 2.0 0.00 0.00 0.00 73 1008.7
20260509131549 58 21 2.0 5.0 0.00 0.00 0.00 75 1008.6
20260509130041 57 27 3.0 5.0 0.00 0.00 0.00 80 1008.3
20260509124535 55 59 0.0 0.0 0.00 0.00 0.00 85 1008.2
20260509123032 54 55 0.0 0.0 0.00 0.00 0.00 87 1008.7
20260509121530 53 55 0.0 0.0 0.00 0.00 0.00 87 1008.8
20260509120028 52 55 0.0 0.0 0.00 0.00 0.00 88 1008.8
20260509114531 52 55 0.0 0.0 0.00 0.00 0.00 89 1008.6
20260509113027 51 55 0.0 0.0 0.00 0.00 0.00 89 1008.6
20260509111524 51 55 0.0 0.0 0.00 0.00 0.00 88 1008.4
20260509110024 51 55 0.0 0.0 0.00 0.00 0.00 88 1008.3
20260509104523 51 55 0.0 0.0 0.00 0.00 0.00 88 1008.5
20260509103023 51 55 0.0 0.0 0.00 0.00 0.00 88 1008.3
20260509101554 51 55 0.0 0.0 0.00 0.00 0.00 88 1008.2
20260509100051 51 55 0.0 0.0 0.00 0.00 0.00 88 1008.2
20260509094549 51 55 0.0 0.0 0.00 0.00 0.00 88 1008.3
20260509093052 51 55 0.0 0.0 0.00 0.00 0.00 88 1008.4
20260509091550 51 56 0.0 0.0 0.00 0.00 0.00 88 1008.4
20260509090047 51 56 0.0 0.0 0.00 0.00 0.00 88 1008.4
20260509084546 51 56 0.0 0.0 0.00 0.00 0.00 88 1008.4
20260509083047 51 55 0.0 0.0 0.00 0.00 0.00 88 1008.7
20260509081548 51 56 0.0 0.0 0.00 0.00 0.00 88 1008.7
20260509080041 51 56 0.0 0.0 0.00 0.00 0.00 87 1008.7
20260509074548 51 57 0.0 0.0 0.00 0.00 0.00 86 1008.8
20260509073037 51 58 0.0 0.0 0.00 0.00 0.00 85 1008.8
20260509071536 51 59 0.0 0.0 0.00 0.00 0.00 85 1008.8
20260509070036 51 56 0.0 0.0 0.00 0.00 0.00 85 1009.0
20260509064541 51 53 0.0 0.0 0.00 0.00 0.00 87 1008.9
20260509063037 51 53 0.0 0.0 0.00 0.00 0.00 87 1008.8
20260509061532 51 53 0.0 0.0 0.00 0.00 0.00 86 1008.8
20260509060030 51 54 0.0 0.0 0.00 0.00 0.00 85 1009.0
20260509054525 51 56 0.0 0.0 0.00 0.00 0.00 82 1009.0
20260509053025 52 56 0.0 0.0 0.00 0.00 0.00 82 1009.2
20260509051526 52 53 0.0 0.0 0.00 0.00 0.00 83 1009.2
20260509050022 53 55 0.0 0.0 0.00 0.00 0.00 81 1009.2
20260509044515 54 54 0.0 0.0 0.00 0.00 0.00 79 1009.0
20260509043013 54 55 0.0 0.0 0.00 0.00 0.00 79 1009.0
20260509041512 54 55 0.0 0.0 0.00 0.00 0.00 78 1009.2
20260509040010 54 55 0.0 2.0 0.00 0.00 0.00 78 1009.3